Regional Weather Roundup
Issued by NWS Little Rock, AR

Home | Current Version | Previous Version | Text Only | Print | Product List | Glossary Off
Versions: 1 2 3 4 5 6 7 8 9 10 11 12 13 14 15 16 17 18 19 20 21 22 23 24 25 26 27 28 29 30 31 32 33 34 35 36 37 38 39 40 41 42 43 44 45 46 47 48 49 50

000
ASUS44 KLZK 201705
RWRLZK

WEATHER ROUNDUP FOR ARKANSAS
NATIONAL WEATHER SERVICE LITTLE ROCK AR
1200 PM CDT SAT SEP 20 2014

NOTE: "FAIR" INDICATES FEW OR NO CLOUDS BELOW 12,000 FEET WITH NO
SIGNIFICANT WEATHER AND/OR OBSTRUCTIONS TO VISIBILITY.

ARZ001-003-010-029-201800-
NORTHWEST ARKANSAS

CITY           SKY/WX    TMP DP  RH WIND       PRES   REMARKS
FAYETTEVILLE   MOSUNNY   78  69  73 S8        30.10F
FORT SMITH     MOSUNNY   82  70  66 CALM      30.07S HX  86
HARRISON       MOSUNNY   80  68  66 SW7       30.10F
BENTONVILLE    PTSUNNY   79  68  69 SW12      30.11S
ROGERS         PTSUNNY   80  69  69 S13       30.10F
SILOAM SPGS    MOSUNNY   81  68  65 SW13      30.11S
HIGHFILL       MOSUNNY   80  70  71 SW9       30.10S
SPRINGDALE     MOSUNNY   81  70  69 SW12      30.12F
$$

ARZ004-005-016-201800-
NORTH CENTRAL ARKANSAS

CITY           SKY/WX    TMP DP  RH WIND       PRES   REMARKS
BATESVILLE     SUNNY     86  66  51 SW8       30.07F HX  88
FLIPPIN        MOSUNNY   82  66  57 SW6       30.08F HX  85
MTN HOME       SUNNY     82  69  64 SW7       30.08F HX  85
$$

ARZ040-041-201800-
WEST CENTRAL ARKANSAS

CITY           SKY/WX    TMP DP  RH WIND       PRES   REMARKS
MENA           PTSUNNY   84  72  65 CALM      30.10S HX  89
MOUNT IDA      SUNNY     84  71  65 CALM      30.07S HX  89
$$

ARZ009-017-025-026-028-201800-
NORTHEAST ARKANSAS

CITY           SKY/WX    TMP DP  RH WIND       PRES   REMARKS
CORNING          N/A     82  70  65 SW9       30.07F HX  86
JONESBORO      SUNNY     87  67  51 SW7       30.07F HX  90
NEWPORT        SUNNY     89  68  49 VRB3      30.08F HX  92
WALNUT RIDGE   SUNNY     84  68  58 SW8       30.06F HX  87
BLYTHEVILLE    SUNNY     85  70  60 S7        30.08F HX  89
$$

ARZ022-023-033-042-044-201800-
CENTRAL ARKANSAS

CITY           SKY/WX    TMP DP  RH WIND       PRES   REMARKS
LITTLE ROCK    MOSUNNY   87  66  49 SE5       30.07F HX  89
N LITTLE ROCK  MOSUNNY   86  68  55 SE8       30.07F HX  89
JACKSONVILLE   SUNNY     86  66  51 VRB1      30.07F HX  88
SEARCY         SUNNY     87  68  53 W5        30.08F HX  90
HOT SPRINGS    SUNNY     84  69  60 SW5       30.08S HX  88
RUSSELLVILLE   SUNNY     84  69  60 CALM      30.08S HX  88
CLINTON        FAIR      84  72  65 CALM      30.08F HX  89
$$

ARZ036-201800-
EAST ARKANSAS

CITY           SKY/WX    TMP DP  RH WIND       PRES   REMARKS
WEST MEMPHIS   SUNNY     85  69  58 S9        30.07F HX  89
$$

ARZ050-053-066-070-073-201800-
SOUTHWEST ARKANSAS

CITY           SKY/WX    TMP DP  RH WIND       PRES   REMARKS
ARKADELPHIA    FAIR      88  72  58 VRB3      30.07S HX  94
CAMDEN         SUNNY     91  66  43 E3        30.05S HX  94
TEXARKANA      MOSUNNY   85  70  60 CALM      30.05F HX  89
EL DORADO      SUNNY     86  68  54 E6        30.05F HX  89
DE QUEEN       MOSUNNY   84  70  62 VRB3      30.05S HX  88
$$

ARZ056-057-069-201800-
SOUTHEAST ARKANSAS

CITY           SKY/WX    TMP DP  RH WIND       PRES   REMARKS
PINE BLUFF     SUNNY     86  66  51 CALM      30.06F HX  88
STUTTGART      SUNNY     88  68  51 SW3       30.08S HX  91
MONTICELLO     SUNNY     89  64  43 E6        30.05F HX  90

$$





USA.gov is the U.S. government's official web portal to all federal, state and local government web resources and services.